[[{"header":{"parameterUnit":"m.s-1","parameterCategory":1,"la1":30.2991,"la2":30.254,"lo1":-89.0895,"lo2":-89.0444,"dy":0.0017,"dx":0.0017,"nx":28,"ny":28,"refTime":"2024-07-17T03:00:00:Z","depth":0,"parameterNumber":2,"parameterNumberName":"U-component_of_WINDS"},"data":[0,0,0,0,0,0,0,0,0,0,0,0,0,0,0,0,0,0,0,0,0,0,0,0,0,0,0,0,0,0,0,0,0,0,0,0,0,0,0,0,0,0,0,0,0,0,0,0,0,0,0,0,0,0,0,0,0,0,3.434,3.4341,0,3.4476,3.4477,3.4479,3.4474,3.4472,3.4471,3.4469,3.4605,3.4611,3.4616,0,0,0,0,0,0,0,0,0,0,0,0,0,3.407,3.4075,3.4339,3.4341,3.4343,3.4476,3.4477,3.4479,3.4475,3.4472,3.447,3.4468,3.4604,3.461,3.4616,0,0,0,0,0,0,0,0,0,0,0,0,0,3.4195,3.4077,3.4339,3.4357,3.436,3.4475,3.4478,3.448,3.4475,3.4472,3.4469,3.4467,3.4601,3.4609,3.4617,3.4724,0,0,3.4642,3.4645,0,0,0,0,0,0,0,0,3.4188,3.4205,3.4352,3.4356,3.4359,3.4455,3.4433,3.4561,3.4476,3.4431,3.4469,3.4465,3.4557,3.4569,3.4601,3.473,3.4736,3.4643,3.4648,3.4651,3.4653,0,0,0,0,0,0,0,3.4179,3.4199,3.4393,3.4354,3.4359,3.4356,3.4371,3.4457,3.4508,3.4435,3.4435,3.4451,3.4559,3.4593,3.4604,3.4738,3.4642,3.465,3.4655,3.4658,3.4957,3.496,0,0,0,0,0,0,3.4167,3.4192,3.4389,3.4397,3.4265,3.4363,3.4379,3.4427,3.4507,3.4517,3.4453,3.445,3.458,3.4594,3.4609,3.4735,3.4651,3.4659,3.4663,3.4954,3.4958,3.4961,0,0,0,0,0,0,3.4162,3.4185,3.4383,3.4295,3.432,3.4371,3.4424,3.4431,3.4465,3.4522,3.453,3.4479,3.4579,3.4597,3.4694,3.474,3.4662,3.467,3.495,3.4955,3.4959,3.4991,0,0,0,0,0,0,3.4154,3.4183,3.4225,3.4296,3.4324,3.4468,3.4427,3.4436,3.448,3.4477,3.4548,3.4557,3.4578,3.4682,3.4702,3.475,3.4676,3.4946,3.4952,3.4958,3.4986,3.4996,3.5005,0,0,0,0,0,3.4144,3.4229,3.4227,3.4251,3.4379,3.4471,3.4487,3.4511,3.4484,3.4525,3.4561,3.4555,3.4732,3.4692,3.4715,3.4765,3.4944,3.4951,3.4957,3.4982,3.4994,3.5005,0,0,0,0,0,0,3.4162,3.4239,3.4238,3.4348,3.4403,3.447,3.4524,3.4524,3.4587,3.4582,3.4607,3.4623,3.4719,3.4753,3.4707,3.487,3.4834,3.4846,3.4845,3.4857,3.4866,3.4855,3.4683,0,0,0,0,0,3.4179,3.4249,3.4312,3.4403,3.4431,3.4472,3.4514,3.4527,3.4584,3.4608,3.465,3.4706,3.4773,3.4818,3.4884,3.4992,3.5005,3.5037,3.5047,3.5054,3.5063,3.5119,3.5133,3.4984,3.4984,3.4984,0,0,3.4214,3.4265,3.4307,3.4408,3.4452,3.4522,3.4492,3.4568,3.4619,3.4619,3.4712,3.4746,3.4809,3.4911,3.4958,3.4941,3.5107,3.5063,3.5068,3.5073,3.5127,3.5141,3.5154,3.4989,3.4988,3.4987,0,0,3.4313,3.436,3.4439,3.4484,3.4552,3.4579,3.4597,3.4665,3.4686,3.4781,3.4781,3.4842,3.496,3.5003,3.5041,3.5155,3.515,3.5176,3.5223,3.5278,3.5289,3.53,3.5337,3.535,3.5185,3.5185,3.5185,0,3.4348,3.4455,3.448,3.4556,3.4598,3.4602,3.468,3.4722,3.4807,3.4836,3.4816,3.4962,3.5005,3.5115,3.5143,3.5174,3.5194,3.5166,3.5286,3.5297,3.5307,3.5342,3.5357,3.5187,3.5187,3.5187,3.5187,0,3.4492,3.4566,3.4622,3.4704,3.4753,3.483,3.4865,3.4911,3.492,3.4948,3.5042,3.5094,3.5169,3.5197,3.5206,3.5308,3.5295,3.5281,3.5244,3.5323,3.5356,3.5371,3.5191,3.519,3.5189,3.5189,0,0,3.4606,3.47,3.472,3.4755,3.4829,3.4886,3.4962,3.5035,3.5073,3.5132,3.5194,3.5292,3.5279,3.5321,3.5336,3.5384,3.5466,3.5363,3.5365,3.5377,3.5577,3.5585,3.56,3.5464,3.5467,3.5469,3.557,0,3.471,3.4846,3.487,3.4987,3.5054,3.5057,3.5123,3.5174,3.5202,3.5261,3.5292,3.536,3.5339,3.5364,3.5412,3.5446,3.5506,3.5439,3.5519,3.5522,3.55,3.5619,3.5628,3.5721,3.5584,3.5586,3.5588,0,3.485,3.4911,3.5036,3.5098,3.5127,3.5185,3.5253,3.5311,3.5368,3.5385,3.5431,3.544,3.5516,3.5478,3.5582,3.5536,3.557,3.5592,3.5596,3.5602,3.5558,3.5624,3.5751,3.5764,3.561,3.5608,3.5606,0,3.4916,3.503,3.5118,3.5149,3.5225,3.5265,3.5299,3.5353,3.5395,3.5454,3.548,3.5548,3.5584,3.5635,3.5659,3.563,3.576,3.5725,3.5774,3.5773,3.5799,3.5797,3.593,3.5827,3.5826,3.5826,3.5826,0,3.5028,3.5103,3.5148,3.5202,3.5285,3.5311,3.5392,3.5424,3.5472,3.5531,3.5539,3.5593,3.5624,3.5683,3.5703,3.5784,3.5801,3.5815,3.5818,3.5812,3.581,3.5833,3.5826,3.583,3.5829,3.5828,3.5828,0,3.5114,3.5148,3.5244,3.5308,3.5325,3.5383,3.5437,3.5488,3.5516,3.5589,3.5608,3.5651,3.572,3.5751,3.5836,3.585,3.5941,3.5942,3.5921,3.5922,3.5967,3.5961,3.6118,3.6138,3.6024,3.6025,3.6026,0,3.5182,3.524,3.5309,3.5349,3.5383,3.5448,3.549,3.5518,3.5561,3.5629,3.5671,3.5741,3.5797,3.5907,3.5945,3.6009,3.6009,3.606,3.6019,3.601,3.6006,3.6001,3.6005,3.6066,3.6067,3.6068,3.6069,0,3.5297,3.5311,3.5372,3.5439,3.5489,3.5543,3.5595,3.5627,3.5662,3.571,3.5781,3.5825,3.5911,3.5978,3.6045,3.6077,3.6078,3.6082,3.6096,3.6088,3.6073,3.6078,3.5938,3.6077,3.6077,3.6076,3.6076,3.6075,3.5374,3.5424,3.548,3.5547,3.559,3.5638,3.5688,3.5722,3.5782,3.5854,3.5867,3.5941,3.5994,3.6083,3.6118,3.6175,3.6163,3.6184,3.6189,3.6193,3.6194,3.6066,3.6188,3.6188,3.6188,3.6187,3.6187,0,3.5487,3.5523,3.5585,3.5657,3.5709,3.5707,3.5764,3.5807,3.5873,3.5923,3.5978,3.6058,3.6123,3.6165,3.6231,3.6268,3.6269,3.6284,3.628,3.6286,3.6203,3.6183,3.6281,3.6281,3.6281,3.6281,3.6281,3.6281,3.5551,3.5635,3.5654,3.5758,3.5793,3.5866,3.5898,3.5942,3.5982,3.607,3.6124,3.6152,3.6198,3.6267,3.6325,3.6336,3.6358,3.6372,3.6382,3.6302,3.6293,3.6283,3.6264,3.6378,3.6378,3.646,3.6461,3.6461]},{"header":{"parameterUnit":"m.s-1","parameterCategory":1,"la1":30.2991,"la2":30.254,"lo1":-89.0895,"lo2":-89.0444,"dy":0.0017,"dx":0.0017,"nx":28,"ny":28,"refTime":"2024-07-17T03:00:00:Z","depth":0,"parameterNumber":3,"parameterNumberName":"V-component_of_WINDS"},"data":[0,0,0,0,0,0,0,0,0,0,0,0,0,0,0,0,0,0,0,0,0,0,0,0,0,0,0,0,0,0,0,0,0,0,0,0,0,0,0,0,0,0,0,0,0,0,0,0,0,0,0,0,0,0,0,0,0,0,1.9919,1.9921,0,2.004,2.0041,2.0043,2.0037,2.0036,2.0034,2.0032,2.0159,2.0164,2.0169,0,0,0,0,0,0,0,0,0,0,0,0,0,1.9687,1.9691,1.9919,1.9921,1.9922,2.004,2.0041,2.0043,2.0038,2.0036,2.0034,2.0032,2.0158,2.0163,2.0169,0,0,0,0,0,0,0,0,0,0,0,0,0,1.9796,1.9692,1.9919,1.9934,1.9936,2.0039,2.0041,2.0043,2.0038,2.0036,2.0033,2.0031,2.0156,2.0163,2.017,2.0268,0,0,2.0193,2.0196,0,0,0,0,0,0,0,0,1.9789,1.9804,1.993,1.9933,1.9936,2.0021,2.0006,2.0119,2.0039,2.0,2.0032,2.0029,2.0115,2.0126,2.0154,2.0273,2.0279,2.0194,2.0198,2.0201,2.0203,0,0,0,0,0,0,0,1.9782,1.9799,1.9967,1.9932,1.9935,1.9935,1.9948,2.0027,2.0071,2.0003,2.0003,2.0017,2.0117,2.0147,2.0157,2.0281,2.0193,2.02,2.0205,2.0208,2.0485,2.0488,0,0,0,0,0,0,1.9771,1.9793,1.9963,1.9971,1.9855,1.9941,1.9955,1.9996,2.007,2.0078,2.0019,2.0016,2.0136,2.0149,2.0162,2.028,2.0201,2.0208,2.0213,2.0482,2.0486,2.0489,0,0,0,0,0,0,1.9766,1.9786,1.9958,1.9882,1.9904,1.9948,1.9994,2.0,2.0031,2.0082,2.009,2.0042,2.0134,2.0151,2.0241,2.0285,2.0212,2.0218,2.0479,2.0483,2.0487,2.0518,0,0,0,0,0,0,1.9759,1.9784,1.9821,1.9882,1.9908,2.0035,1.9997,2.0004,2.0043,2.0041,2.0106,2.0114,2.0134,2.023,2.0248,2.0294,2.0224,2.0475,2.0481,2.0486,2.0513,2.0523,2.0531,0,0,0,0,0,1.9751,1.9826,1.9823,1.9844,1.9955,2.0037,2.0052,2.0072,2.0047,2.0084,2.0117,2.0112,2.0276,2.0239,2.026,2.0308,2.0472,2.0479,2.0485,2.0509,2.0521,2.0531,0,0,0,0,0,0,1.9771,1.9834,1.9832,1.9929,1.9978,2.0036,2.0085,2.0084,2.0141,2.0137,2.016,2.0175,2.0265,2.0295,2.0252,2.0406,2.0371,2.0382,2.0382,2.0394,2.0403,2.0394,2.023,0,0,0,0,0,1.9786,1.9847,1.99,1.998,2.0004,2.004,2.0077,2.0088,2.014,2.0161,2.02,2.0251,2.0314,2.0356,2.0417,2.0517,2.0532,2.0561,2.0569,2.0577,2.0586,2.0641,2.0655,2.051,2.051,2.051,0,0,1.9819,1.9861,1.9899,1.9985,2.0024,2.0087,2.0058,2.0126,2.0173,2.0172,2.0258,2.0289,2.0347,2.0443,2.0487,2.0471,2.0629,2.0585,2.059,2.0596,2.0649,2.0663,2.0675,2.0515,2.0514,2.0513,0,0,1.9911,1.9949,2.002,2.0059,2.0118,2.0141,2.0158,2.0216,2.0236,2.0323,2.0323,2.038,2.0488,2.053,2.0565,2.0671,2.0669,2.0691,2.0737,2.0791,2.0802,2.0812,2.0851,2.0864,2.07,2.07,2.07,0,1.9945,2.0039,2.0057,2.0125,2.0163,2.0163,2.0235,2.0273,2.0349,2.0375,2.0356,2.0492,2.0531,2.0636,2.0662,2.069,2.0711,2.0684,2.0799,2.0809,2.0819,2.0856,2.087,2.0702,2.0702,2.0702,2.0701,0,2.0078,2.0143,2.0193,2.0265,2.0309,2.0379,2.0408,2.045,2.0457,2.0482,2.0571,2.0618,2.0688,2.0714,2.0722,2.082,2.0808,2.0794,2.076,2.0835,2.087,2.0884,2.0705,2.0705,2.0704,2.0703,0,0,2.0187,2.0267,2.0285,2.0317,2.0381,2.0432,2.0502,2.0569,2.0605,2.0658,2.0717,2.0808,2.0795,2.0835,2.0847,2.0894,2.0975,2.0874,2.0876,2.0892,2.1086,2.1097,2.1113,2.0973,2.0976,2.0978,2.1081,0,2.0286,2.0409,2.0426,2.0535,2.0596,2.0595,2.0656,2.0702,2.0728,2.0783,2.0811,2.0875,2.0853,2.0877,2.0923,2.0955,2.1015,2.0948,2.103,2.1032,2.1016,2.1131,2.1143,2.1238,2.1095,2.1097,2.1099,0,2.0419,2.0473,2.0587,2.0642,2.0668,2.0722,2.0785,2.0837,2.089,2.0905,2.0949,2.0955,2.1028,2.099,2.1091,2.1045,2.108,2.11,2.1105,2.1114,2.1071,2.1143,2.1268,2.1283,2.112,2.1119,2.1117,0,2.0487,2.0588,2.067,2.0697,2.0763,2.0801,2.0831,2.088,2.0919,2.0974,2.1,2.1063,2.1098,2.1147,2.117,2.114,2.127,2.1234,2.1285,2.1284,2.1313,2.1311,2.1446,2.1334,2.1334,2.1334,2.1333,0,2.0596,2.0666,2.0701,2.0751,2.083,2.0849,2.0927,2.0955,2.0999,2.1055,2.1059,2.1111,2.1139,2.1196,2.1215,2.1295,2.1311,2.1326,2.133,2.1326,2.1324,2.1349,2.1343,2.1337,2.1337,2.1336,2.1335,0,2.0686,2.0712,2.0801,2.0855,2.0871,2.0926,2.0973,2.1022,2.1046,2.1117,2.1135,2.1173,2.124,2.1268,2.1351,2.1363,2.1456,2.1455,2.1438,2.144,2.1489,2.1484,2.1645,2.1668,2.1541,2.1542,2.1543,0,2.0754,2.0808,2.0868,2.0905,2.0935,2.0995,2.1034,2.1055,2.1096,2.1159,2.12,2.1267,2.1321,2.1429,2.1465,2.1528,2.1529,2.1581,2.1539,2.1532,2.153,2.1527,2.1532,2.1589,2.159,2.1591,2.1592,0,2.0873,2.0883,2.0938,2.0999,2.1045,2.1094,2.1142,2.1172,2.1201,2.1247,2.1314,2.1357,2.144,2.1507,2.1572,2.1603,2.1603,2.1605,2.162,2.1617,2.1605,2.1612,2.146,2.1601,2.1601,2.16,2.1599,2.1599,2.0954,2.1002,2.105,2.1113,2.115,2.1194,2.1243,2.1272,2.1328,2.1397,2.1406,2.1479,2.153,2.1617,2.165,2.1708,2.1695,2.1717,2.1723,2.1728,2.1731,2.1595,2.172,2.172,2.1719,2.1719,2.1719,0,2.1073,2.1104,2.116,2.1226,2.1275,2.1269,2.1321,2.1362,2.1426,2.1472,2.1525,2.1603,2.1667,2.1707,2.1772,2.1811,2.1812,2.1827,2.1825,2.1832,2.1739,2.172,2.1825,2.1825,2.1825,2.1824,2.1824,2.1824,2.114,2.122,2.1236,2.1334,2.1365,2.1435,2.1465,2.1506,2.1543,2.1629,2.1682,2.1707,2.1751,2.1819,2.1877,2.1888,2.1912,2.1927,2.1937,2.1849,2.1839,2.1828,2.181,2.1932,2.1932,2.2025,2.2026,2.2026]}]]